www.pogodaiklimat.ru

Погода и климат >> Архив погоды >> Россия >> Архангельская область >> Архангельск


АРХИВ ПОГОДЫ в Архангельске

Время (UTC), дата Ветер
(напр.,м/с)
 
Видим.   Явления Облачность Т
(С)
Тd
(С)
f
(%)
Тe
(С)
Тes
(С)
Комфортность P
(гПа)
Po
(гПа)
Тmin
(С)
Tmax
(С)
R
(мм)
R24
(мм)
S
(см)
00 10.09 ЮВ 1 20 км 8/0
[Ac lent]
+7.0 +7.0 100 +6 +6 по сезону 1028.8 1027.8
03 10.09 ЮВ 2 10 км 3/0
[Ac lent]
+8.1 +8.1 100 +6 +6 по сезону 1028.6 1027.6 +5.5
06 10.09 штиль 0 10 км 3/0
[Ac trans]
+14.2 +11.9 86 +14 +17 тепло 1028.5 1027.5
09 10.09 Ю 2 10 км 4/0
[Ac trans]
+18.2 +11.8 66 +19 +23 тепло 1028.2 1027.2
12 10.09 В 1 10 км 9/0
[Ac As]
+16.7 +12.6 77 +18 +19 тепло 1027.3 1026.4
15 10.09 ЮВ 2 10 км 9/0
[Ac As Ci fib]
+15.9 +12.0 78 +16 +16 тепло 1026.0 1025.1 +18.5
18 10.09 ЮВ 1 25 км 9/0
[Ac trans]
+13.5 +12.1 91 +14 +14 тепло 1024.9 1023.9
21 10.09 ЮВ 1 3800 м ливневой дождь, в посл. час гроза 10/10 330 м
[Cb cap]
+12.8 +12.8 100 +13 +13 тепло 1024.2 1023.2
00 11.09 Ю 1 14 км {гроза, ливн. осадки} 10/10 720 м
[Sc]
+13.1 +13.1 100 +13 +13 тепло 1024.2 1023.2
03 11.09 ЮВ 1 10 км {ливн. осадки} 9/4 600 м
[Cb cap Ac trans Ci fib]
+12.6 +12.6 100 +12 +12 тепло 1023.7 1022.8 +12.6 2
06 11.09 штиль 0 10 км {ливн. осадки} 8/6 210 м
[St Ac As Ci fib]
+15.1 +15.0 99 +15 +16 тепло 1023.9 1022.9 +12.1
09 11.09 Ю 1 10 км в посл. час ливневой дождь 9/9 240 м
[St]
+16.8 +16.7 99 +18 +18 тепло 1023.3 1022.4
12 11.09 ЮЗ 1 10 км {ливн. осадки} 4/0
[Ac As Ci ing]
+22.9 +16.9 69 +28 +31 душно 1021.8 1020.9
15 11.09 ЮВ 2 10 км 9/0
[Ac As Cs]
+20.0 +16.3 79 +23 +23 комфорт 1020.7 1019.7 +23.1 0.4
18 11.09 ЮВ 2 21 км 10/0
[Cs]
+16.4 +14.6 89 +16 +16 тепло 1020.1 1019.1
21 11.09 ЮВ 3 23 км 10/0
[Ac As]
+15.3 +14.2 93 +15 +15 тепло 1018.7 1017.7
00 12.09 ЮВ 2 22 км 9/0
[Ac trans]
+14.4 +13.6 95 +14 +14 тепло 1017.3 1016.3
03 12.09 ЮВ 2 10 км 9/0
[Ac trans Ci sp]
+13.4 +13.0 97 +13 +13 тепло 1016.0 1015.0 +13.3
06 12.09 ЮВ 1 10 км 9/0
[Ac trans Ci sp]
+16.0 +13.7 86 +17 +18 тепло 1015.0 1014.0
09 12.09 Ю 3 10 км 9/0
[Ac trans]
+17.6 +12.3 71 +18 +20 тепло 1014.0 1013.0
12 12.09 ЮЗ 4 10 км 10/10 1080 м
[Cb cap]
+18.5 +12.6 68 +19 +19 тепло 1013.1 1012.1
15 12.09 ЮЗ 4
{12}
10 км {ливн. осадки} 9/5 600 м
[Cb cap Ac cuf Ci ing]
+16.3 +12.6 79 +16 +16 тепло 1012.5 1011.5 +19.7 0.7
18 12.09 Ю 2 22 км {ливн. осадки} 10/0
[Ac As]
+14.5 +11.8 84 +14 +14 тепло 1011.6 1010.6
21 12.09 Ю 2 24 км 10/0
[Ac As Cs]
+13.9 +9.9 77 +13 +13 тепло 1009.6 1008.6
00 13.09 Ю 2 20 км 10/0
[Ac und]
+12.9 +9.4 79 +12 +12 тепло 1007.3 1006.3
03 13.09 Ю 3 10 км 6/0
[Ac As Ci sp]
+11.6 +9.4 86 +10 +10 тепло 1005.5 1004.5 +11.6
06 13.09 Ю 3 10 км слаб. ливневой дождь 10/10 960 м
[Cb cap]
+13.1 +11.1 88 +12 +12 тепло 1004.3 1003.3
09 13.09 ЮЗ 3 10 км в посл. час ливневой дождь 9/5 600 м
[Cb cap Ac As]
+14.4 +13.0 91 +13 +14 тепло 1004.2 1003.3
12 13.09 ЮЗ 2 10 км {ливн. осадки} 9/3 600 м
[Cb cap Ac As]
+15.6 +10.9 74 +16 +16 тепло 1004.3 1003.4
15 13.09 Ю 2 10 км 9/3 600 м
[Sc Ac As Ci fib]
+13.9 +11.2 84 +13 +13 тепло 1003.6 1002.6 +16.6 2
18 13.09 Ю 2 18 км {ливн. осадки} 9/3 600 м
[Cb cap Ac cast]
+12.8 +10.7 87 +12 +12 тепло 1002.4 1001.4
21 13.09 Ю 2 15 км в посл. час ливневой дождь 9/8 840 м
[Cb cap Ac cuf]
+11.8 +11.5 98 +11 +11 тепло 1001.3 1000.3
00 14.09 Ю 1 15 км {ливн. осадки} 9/0
[Ac trans]
+11.1 +10.9 99 +11 +11 тепло 1000.4 999.4
03 14.09 штиль 0 10 км 9/9 210 м
[St]
+10.7 +10.7 100 +10 +10 тепло 999.5 998.5 +10.7 1
06 14.09 С 1 10 км слаб. ливневой дождь 10/6 600 м
[Cb cap Ac As]
+11.2 +10.7 97 +11 +11 тепло 998.2 997.3
09 14.09 С 2 4000 м ливневой дождь 10/10 330 м
[Cb cap]
+11.3 +11.2 99 +10 +10 по сезону 996.6 995.6
12 14.09 СЗ 3 2000 м ливневой дождь 10/10 480 м
[Cb cap]
+10.5 +10.5 100 +8 +8 по сезону 995.4 994.4
15 14.09 СЗ 6-12
{13}
2000 м ливневой дождь 10/10 600 м
[Cb cap]
+9.7 +9.1 96 +6 +6 по сезону 995.2 994.2 +11.5 32
18 14.09 СЗ 4
{13}
10 км слаб. дождь 10/10 450 м
[Frnb Ns]
+9.7 +9.2 97 +7 +7 по сезону 994.5 993.5
21 14.09 СЗ 5
{12}
8000 м слаб. дождь 10/10 360 м
[Frnb Ns]
+10.0 +9.5 97 +7 +7 по сезону 993.1 992.1
00 15.09 СЗ 5
{12}
9000 м слаб. дождь 10/10 330 м
[Frnb Ns]
+8.9 +8.3 96 +5 +5 по сезону 992.8 991.8
03 15.09 СЗ 6-13
{16}
4000 м дождь 10/10 360 м
[Frnb Ns]
+8.1 +7.4 95 +4 +4 по сезону 992.5 991.5 +8.1 11
06 15.09 СЗ 7-14
{17}
4000 м дождь 10/10 300 м
[Frnb Ns]
+7.8 +7.0 95 +3 +3 прохладно 992.5 991.5 +7.8
09 15.09 З 6-13
{15}
4000 м дождь 10/10 360 м
[Frnb Ns]
+7.8 +7.0 95 +3 +3 прохладно 992.8 991.8
12 15.09 З 6-16
{17}
4000 м дождь 10/0 700 м
[As op]
+7.9 +7.0 94 +4 +4 холодно 993.4 992.4
15 15.09 З 5-12
{16}
4000 м дождь 10/0 480 м
[As op]
+7.8 +7.0 95 +4 +4 прохладно 992.9 992.0 +8.1 14
18 15.09 З 3
{12}
11 км слаб. дождь 10/0 700 м
[As op]
+7.1 +5.3 88 +4 +4 по сезону 991.7 990.7
21 15.09 З 4 23 км {дождь} 9/8 800 м
[Sc Ac As]
+6.5 +4.2 85 +3 +3 по сезону 990.0 989.0
00 16.09 ЮЗ 3 22 км {дождь} 9/4 600 м
[Sc Ac As]
+6.5 +3.8 83 +3 +3 по сезону 988.5 987.6
03 16.09 ЮЗ 1 10 км 10/0
[Ac und]
+6.2 +3.5 83 +5 +5 по сезону 987.0 996.0 +6.1 3
06 16.09 Ю 1 10 км 9/0
[Ac trans]
+6.7 +4.4 85 +6 +7 по сезону 985.8 984.9 +5.8
09 16.09 ЮЗ 2 10 км 9/0
[Ac trans]
+9.8 +3.9 67 +8 +10 по сезону 985.4 984.5
12 16.09 штиль 0 10 км 9/0
[Ac trans]
+10.3 +5.1 70 +10 +11 по сезону 985.7 984.7
15 16.09 З 1 10 км 9/8 900 м
[Sc Ac trans]
+8.9 +5.3 78 +8 +8 по сезону 986.0 985.0 +10.4
18 16.09 З 1 19 км 10/10 480 м
[Sc]
+7.8 +6.4 91 +7 +7 по сезону 985.8 984.8

 

Местоположение метеостанции Архангельск (Архангельская область, Россия): широта 64.50 долгота 40.73 высота над уровнем моря 8 м.

В архиве по умолчанию представлена погода в Архангельске за последнюю неделю. Архивные данные за месяц целиком и за предыдущие месяцы, начиная с января 2011 года, Вы можете получить, выбрав интересующий диапазон дат из раскрывающегося списка и нажав кнопку "Ввод!".


*Определитесь, кто Вы:
робот инопланетянин человек

Внимание! Время в таблицах - всемирное. Для получения местного времени необходимо прибавить поправку, которая равна 3 ч.

Смотрите также архив погоды в соседних городах и на ближайших метеорологических станциях:

Погода на Мудьюг Острове (Архангельская область, Россия) (44 км)
Погода в Северодвинске (Архангельская область, Россия) (46 км)
Погода в Холмогорах (Архангельская область, Россия) (55 км)
Погода в Кепино (Архангельская область, Россия) (111 км)
Погода в Зимнегорском Маяке (Архангельская область, Россия) (117 км)
Погода в Унском Маяке (Архангельская область, Россия) (117 км)
Погода в Емецке (Архангельская область, Россия) (125 км)
Погода в Пинеге (Архангельская область, Россия) (130 км)
Погода в Онеге (Архангельская область, Россия) (143 км)
Погода в Турчасово (Архангельская область, Россия) (170 км)

Пояснения к столбцам:

Ветер - указаны скорость ветра в м/с - средняя за 10 мин, порывы в срок и между сроками (в фигурных скобках) и направление, откуда дует ветер: С - северный, СВ - северо-восточный, В - восточный, ЮВ - юго-восточный, Ю - южный, ЮЗ - юго-западный, З - западный, СЗ - северо-западный.
Видимость - горизонтальная дальность видимости в метрах или километрах. При видимости от 1 до 10 км при отсутствии осадков обычно наблюдается дымка, при ухудшении видимости до 1 км и менее - туман. В сухую погоду видимость может ухудшаться дымом, пылью или мглою.
Явления - указаны атмосферные явления, наблюдавшиеся в срок или в последний час перед сроком; фигурными скобками обозначены явления, наблюдавшиеся между сроками (за 1-3 часа до срока); квадратными скобками обозначены град или гололедные отложения с указанием их диаметра в мм.
Облачность - указаны через наклонную черту общая и нижняя облачность в баллах и высота нижней границы облаков в метрах; квадратными скобками обозначены формы облаков: Ci - перистые, Cs - перисто-слоистые, Cc - перисто-кучевые, Ac - высококучевые, As - высокослоистые, Sc - слоисто-кучевые, Ns - слоисто-дождевые, Cu - кучевые, Cb - кучево-дождевые. Подробнее классификацию облаков см. в Атласе облаков (PDF).
T - Температура воздуха - температура, измеренная на высоте 2 м над землей.
Td - Температура точки росы - температура, при понижении до которой содержащийся в воздухе водяной пар достигнет насыщения.
f - Относительная влажность воздуха - влажноcть воздуха, измеренная на высоте 2 м над землей.
Te - Эффективная температура - температура, которую ощущает одетый по сезону человек в тени. Характеристика душности погоды. При расчете учитывается влияние влажности воздуха и скорости ветра на теплоощущения человека.
Tes - Эффективная температура на солнце - температура, которую ощущает человек, с поправкой на солнечный нагрев. Характеристика знойности погоды. Зависит от высоты солнца над горизонтом, облачности и скорости ветра. Ночью, в пасмурную погоду, а также при ветре 12 м/с и более поправка равна нулю.
P - Атмосферное давление - приведенное к уровню моря атмосферное давление.
Po - Атмосферное давление - измеренное на уровне метеостанции атмосферное давление.
Tmin - Минимальная температура - минимум температуры воздуха на высоте 2 м над землей.
Tmax - Максимальная температура - максимум температуры воздуха на высоте 2 м над землей.
R - Количество осадков - Количество выпавших осадков за период времени, мм. При наведении курсора мыши на число - период времени, за который выпало указанное количество осадков.
R24 - Количество осадков - Количество выпавших осадков за 24 часа, мм.
S - Снежный покров - Высота снежного покрова, см. При наведении курсора мыши на число - состояние снежного покрова и степень покрытия местности в баллах.